Time,TemperatureF,DewpointF,PressureIn,WindDirection,WindDirectionDegrees,WindSpeedMPH,WindSpeedGustMPH,Humidity,HourlyPrecipIn,Conditions,Clouds,dailyrainin,SoftwareType,DateUTC
2013-04-30 00:02:00,62.8,54.7,29.52,North,0,0.0,0.0,75,0.00,,,0.00,WUHU21623XXSP,2013-04-30 05:02:00,
2013-04-30 00:07:00,62.8,54.7,29.52,North,0,0.0,0.0,75,0.00,,,0.00,WUHU21623XXSP,2013-04-30 05:07:00,
2013-04-30 00:12:00,62.8,54.7,29.52,North,0,0.0,0.0,75,0.00,,,0.00,WUHU21623XXSP,2013-04-30 05:12:00,
2013-04-30 00:17:00,62.8,54.7,29.53,North,0,0.0,0.0,75,0.00,,,0.00,WUHU21623XXSP,2013-04-30 05:17:00,
2013-04-30 00:22:00,62.8,54.7,29.52,North,0,0.0,0.0,75,0.00,,,0.00,WUHU21623XXSP,2013-04-30 05:22:00,
2013-04-30 00:27:00,62.8,54.7,29.52,North,0,0.0,0.0,75,0.00,,,0.00,WUHU21623XXSP,2013-04-30 05:27:00,
2013-04-30 00:32:00,62.8,54.7,29.52,North,0,0.0,0.0,75,0.00,,,0.00,WUHU21623XXSP,2013-04-30 05:32:00,
2013-04-30 00:37:00,62.6,54.5,29.51,North,0,0.0,0.0,75,0.00,,,0.00,WUHU21623XXSP,2013-04-30 05:37:00,
2013-04-30 00:42:00,62.4,54.3,29.51,North,0,0.0,0.0,75,0.00,,,0.00,WUHU21623XXSP,2013-04-30 05:42:00,
2013-04-30 00:47:00,62.4,54.3,29.51,North,0,0.0,0.0,75,0.00,,,0.00,WUHU21623XXSP,2013-04-30 05:47:00,
2013-04-30 00:52:00,62.4,54.3,29.50,North,0,0.0,0.0,75,0.00,,,0.00,WUHU21623XXSP,2013-04-30 05:52:00,
2013-04-30 00:57:00,62.6,54.5,29.50,North,0,0.0,0.0,75,0.00,,,0.00,WUHU21623XXSP,2013-04-30 05:57:00,
2013-04-30 01:02:00,62.6,54.5,29.50,North,0,0.0,0.0,75,0.00,,,0.00,WUHU21623XXSP,2013-04-30 06:02:00,
2013-04-30 01:07:00,62.8,54.7,29.49,North,0,0.0,0.0,75,0.00,,,0.00,WUHU21623XXSP,2013-04-30 06:07:00,
2013-04-30 01:12:00,62.6,54.1,29.49,North,0,0.0,0.0,74,0.00,,,0.00,WUHU21623XXSP,2013-04-30 06:12:00,
2013-04-30 01:17:00,62.4,54.0,29.49,North,0,0.0,0.0,74,0.00,,,0.00,WUHU21623XXSP,2013-04-30 06:17:00,
2013-04-30 01:22:00,62.4,54.3,29.49,North,0,0.0,0.0,75,0.00,,,0.00,WUHU21623XXSP,2013-04-30 06:22:00,
2013-04-30 01:27:00,62.4,54.3,29.49,North,0,0.0,0.0,75,0.00,,,0.00,WUHU21623XXSP,2013-04-30 06:27:00,
2013-04-30 01:32:00,62.4,54.3,29.49,North,0,0.0,0.0,75,0.00,,,0.00,WUHU21623XXSP,2013-04-30 06:32:00,
2013-04-30 01:37:00,62.2,54.2,29.48,North,0,0.0,0.0,75,0.00,,,0.00,WUHU21623XXSP,2013-04-30 06:37:00,
2013-04-30 01:42:00,62.2,54.2,29.48,North,0,0.0,0.0,75,0.00,,,0.00,WUHU21623XXSP,2013-04-30 06:42:00,
2013-04-30 01:47:00,62.2,54.2,29.48,North,0,0.0,0.0,75,0.00,,,0.00,WUHU21623XXSP,2013-04-30 06:47:00,
2013-04-30 01:52:00,62.2,54.2,29.48,North,0,0.0,0.0,75,0.00,,,0.00,WUHU21623XXSP,2013-04-30 06:52:00,
2013-04-30 01:57:00,62.2,54.2,29.48,North,0,0.0,0.0,75,0.00,,,0.00,WUHU21623XXSP,2013-04-30 06:57:00,
2013-04-30 02:02:00,62.1,54.0,29.47,North,0,0.0,0.0,75,0.00,,,0.00,WUHU21623XXSP,2013-04-30 07:02:00,
2013-04-30 02:07:00,61.9,54.2,29.47,North,0,0.0,0.0,76,0.00,,,0.00,WUHU21623XXSP,2013-04-30 07:07:00,
2013-04-30 02:12:00,62.1,54.4,29.47,North,0,0.0,0.0,76,0.00,,,0.00,WUHU21623XXSP,2013-04-30 07:12:00,
2013-04-30 02:17:00,62.1,54.4,29.47,North,0,0.0,0.0,76,0.00,,,0.00,WUHU21623XXSP,2013-04-30 07:17:00,
2013-04-30 02:22:00,62.2,54.5,29.47,North,0,0.0,0.0,76,0.00,,,0.00,WUHU21623XXSP,2013-04-30 07:22:00,
2013-04-30 02:27:00,62.2,54.5,29.47,North,0,0.0,0.0,76,0.00,,,0.00,WUHU21623XXSP,2013-04-30 07:27:00,
2013-04-30 02:32:00,62.2,54.5,29.46,North,0,0.0,0.0,76,0.00,,,0.00,WUHU21623XXSP,2013-04-30 07:32:00,
2013-04-30 02:37:00,62.2,54.5,29.46,North,0,0.0,0.0,76,0.00,,,0.00,WUHU21623XXSP,2013-04-30 07:37:00,
2013-04-30 02:42:00,62.2,54.5,29.46,North,0,0.0,0.0,76,0.00,,,0.00,WUHU21623XXSP,2013-04-30 07:42:00,
2013-04-30 02:47:00,62.2,54.2,29.47,North,0,0.0,0.0,75,0.00,,,0.00,WUHU21623XXSP,2013-04-30 07:47:00,
2013-04-30 02:52:00,62.2,54.5,29.46,North,0,0.0,0.0,76,0.00,,,0.00,WUHU21623XXSP,2013-04-30 07:52:00,
2013-04-30 02:57:00,62.2,54.2,29.46,North,0,0.0,0.0,75,0.00,,,0.00,WUHU21623XXSP,2013-04-30 07:57:00,
2013-04-30 03:02:00,62.1,54.0,29.45,North,0,0.0,0.0,75,0.00,,,0.00,WUHU21623XXSP,2013-04-30 08:02:00,
2013-04-30 03:07:00,61.9,54.2,29.45,North,0,0.0,0.0,76,0.00,,,0.00,WUHU21623XXSP,2013-04-30 08:07:00,
2013-04-30 03:12:00,61.9,54.2,29.45,North,0,0.0,0.0,76,0.00,,,0.00,WUHU21623XXSP,2013-04-30 08:12:00,
2013-04-30 03:17:00,61.7,54.0,29.44,North,0,0.0,0.0,76,0.00,,,0.00,WUHU21623XXSP,2013-04-30 08:17:00,
2013-04-30 03:25:00,61.5,53.9,29.44,North,0,0.0,0.0,76,0.00,,,0.00,WUHU21623XXSP,2013-04-30 08:25:00,
2013-04-30 03:30:00,61.5,54.2,29.44,North,0,0.0,0.0,77,0.00,,,0.00,WUHU21623XXSP,2013-04-30 08:30:00,
2013-04-30 03:35:00,61.5,54.2,29.44,North,0,0.0,0.0,77,0.00,,,0.00,WUHU21623XXSP,2013-04-30 08:35:00,
2013-04-30 03:40:00,61.5,54.2,29.44,North,0,0.0,0.0,77,0.00,,,0.00,WUHU21623XXSP,2013-04-30 08:40:00,
2013-04-30 03:45:00,61.5,54.2,29.43,North,0,0.0,0.0,77,0.00,,,0.00,WUHU21623XXSP,2013-04-30 08:45:00,
2013-04-30 03:50:00,61.5,54.2,29.43,North,0,0.0,0.0,77,0.00,,,0.00,WUHU21623XXSP,2013-04-30 08:50:00,
2013-04-30 03:55:00,61.5,54.2,29.43,North,0,0.0,0.0,77,0.00,,,0.00,WUHU21623XXSP,2013-04-30 08:55:00,
2013-04-30 04:00:00,61.5,54.2,29.42,North,0,0.0,0.0,77,0.00,,,0.00,WUHU21623XXSP,2013-04-30 09:00:00,
2013-04-30 04:05:00,61.5,54.2,29.42,North,0,0.0,0.0,77,0.00,,,0.00,WUHU21623XXSP,2013-04-30 09:05:00,
2013-04-30 04:10:00,61.3,54.1,29.42,North,0,0.0,0.0,77,0.00,,,0.00,WUHU21623XXSP,2013-04-30 09:10:00,
2013-04-30 04:15:00,61.3,54.1,29.42,North,0,0.0,0.0,77,0.00,,,0.00,WUHU21623XXSP,2013-04-30 09:15:00,
2013-04-30 04:20:00,61.2,54.3,29.43,North,0,0.0,0.0,78,0.00,,,0.00,WUHU21623XXSP,2013-04-30 09:20:00,
2013-04-30 04:25:00,61.2,54.3,29.42,North,0,0.0,0.0,78,0.00,,,0.00,WUHU21623XXSP,2013-04-30 09:25:00,
2013-04-30 04:30:00,61.2,54.3,29.42,North,0,0.0,0.0,78,0.00,,,0.00,WUHU21623XXSP,2013-04-30 09:30:00,
2013-04-30 04:35:00,61.2,54.6,29.41,North,0,0.0,0.0,79,0.00,,,0.00,WUHU21623XXSP,2013-04-30 09:35:00,
2013-04-30 04:40:00,61.2,54.6,29.42,North,0,0.0,0.0,79,0.00,,,0.00,WUHU21623XXSP,2013-04-30 09:40:00,
2013-04-30 04:45:00,61.2,54.6,29.41,North,0,0.0,0.0,79,0.00,,,0.00,WUHU21623XXSP,2013-04-30 09:45:00,
2013-04-30 04:50:00,61.3,54.8,29.41,North,0,0.0,0.0,79,0.00,,,0.00,WUHU21623XXSP,2013-04-30 09:50:00,
2013-04-30 04:55:00,61.3,54.8,29.42,North,0,0.0,0.0,79,0.00,,,0.00,WUHU21623XXSP,2013-04-30 09:55:00,
2013-04-30 05:00:00,61.2,54.6,29.41,North,0,0.0,0.0,79,0.00,,,0.00,WUHU21623XXSP,2013-04-30 10:00:00,
2013-04-30 05:05:00,61.2,54.6,29.41,North,0,0.0,0.0,79,0.00,,,0.00,WUHU21623XXSP,2013-04-30 10:05:00,
2013-04-30 05:10:00,61.2,54.6,29.41,North,0,0.0,0.0,79,0.00,,,0.00,WUHU21623XXSP,2013-04-30 10:10:00,
2013-04-30 05:15:00,61.0,54.8,29.41,North,0,0.0,0.0,80,0.00,,,0.00,WUHU21623XXSP,2013-04-30 10:15:00,
2013-04-30 05:20:00,61.0,54.8,29.41,North,0,0.0,0.0,80,0.00,,,0.00,WUHU21623XXSP,2013-04-30 10:20:00,
2013-04-30 05:25:00,61.0,55.2,29.41,North,0,0.0,0.0,81,0.00,,,0.00,WUHU21623XXSP,2013-04-30 10:25:00,
2013-04-30 05:30:00,60.8,55.0,29.41,North,0,0.0,0.0,81,0.00,,,0.00,WUHU21623XXSP,2013-04-30 10:30:00,
2013-04-30 05:35:00,60.6,54.8,29.41,North,0,0.0,0.0,81,0.00,,,0.00,WUHU21623XXSP,2013-04-30 10:35:00,
2013-04-30 05:40:00,60.6,54.8,29.41,North,0,0.0,0.0,81,0.00,,,0.00,WUHU21623XXSP,2013-04-30 10:40:00,
2013-04-30 05:45:00,60.6,54.8,29.41,North,0,0.0,0.0,81,0.00,,,0.00,WUHU21623XXSP,2013-04-30 10:45:00,
2013-04-30 05:50:00,60.6,54.8,29.41,North,0,0.0,0.0,81,0.00,,,0.00,WUHU21623XXSP,2013-04-30 10:50:00,
2013-04-30 05:55:00,60.6,55.1,29.41,North,0,0.0,0.0,82,0.00,,,0.00,WUHU21623XXSP,2013-04-30 10:55:00,
2013-04-30 06:00:00,60.6,55.1,29.41,North,0,0.0,0.0,82,0.00,,,0.00,WUHU21623XXSP,2013-04-30 11:00:00,
2013-04-30 06:05:00,61.0,55.8,29.41,North,0,0.0,0.0,83,0.00,,,0.00,WUHU21623XXSP,2013-04-30 11:05:00,
2013-04-30 06:10:00,61.0,55.8,29.41,North,0,0.0,0.0,83,0.00,,,0.00,WUHU21623XXSP,2013-04-30 11:10:00,
2013-04-30 06:15:00,61.3,56.1,29.41,North,0,0.0,0.0,83,0.00,,,0.00,WUHU21623XXSP,2013-04-30 11:15:00,
2013-04-30 06:20:00,61.5,56.3,29.41,North,0,0.0,0.0,83,0.00,,,0.00,WUHU21623XXSP,2013-04-30 11:20:00,
2013-04-30 06:25:00,61.7,56.5,29.41,North,0,0.0,0.0,83,0.00,,,0.00,WUHU21623XXSP,2013-04-30 11:25:00,
2013-04-30 06:30:00,62.1,56.8,29.41,North,0,0.0,0.0,83,0.00,,,0.00,WUHU21623XXSP,2013-04-30 11:30:00,
2013-04-30 06:35:00,62.4,57.1,29.42,North,0,0.0,0.0,83,0.00,,,0.00,WUHU21623XXSP,2013-04-30 11:35:00,
2013-04-30 06:40:00,62.8,57.5,29.42,North,0,0.0,0.0,83,0.00,,,0.00,WUHU21623XXSP,2013-04-30 11:40:00,
2013-04-30 06:45:00,63.0,57.3,29.42,North,0,0.0,0.0,82,0.00,,,0.00,WUHU21623XXSP,2013-04-30 11:45:00,
2013-04-30 06:50:00,63.3,57.7,29.42,North,0,0.0,0.0,82,0.00,,,0.00,WUHU21623XXSP,2013-04-30 11:50:00,
2013-04-30 06:55:00,63.5,57.9,29.42,North,0,0.0,0.0,82,0.00,,,0.00,WUHU21623XXSP,2013-04-30 11:55:00,
2013-04-30 07:00:00,63.7,57.7,29.42,North,0,0.0,0.0,81,0.00,,,0.00,WUHU21623XXSP,2013-04-30 12:00:00,
2013-04-30 07:05:00,64.0,58.1,29.42,North,0,0.0,0.0,81,0.00,,,0.00,WUHU21623XXSP,2013-04-30 12:05:00,
2013-04-30 07:10:00,64.0,57.7,29.43,North,0,0.0,0.0,80,0.00,,,0.00,WUHU21623XXSP,2013-04-30 12:10:00,
2013-04-30 07:15:00,64.2,57.9,29.43,North,0,0.0,0.0,80,0.00,,,0.00,WUHU21623XXSP,2013-04-30 12:15:00,
2013-04-30 07:20:00,64.6,57.7,29.43,North,0,0.0,0.0,79,0.00,,,0.00,WUHU21623XXSP,2013-04-30 12:20:00,
2013-04-30 07:25:00,64.6,57.9,29.43,North,0,0.0,0.0,79,0.00,,,0.00,WUHU21623XXSP,2013-04-30 12:25:00,
2013-04-30 07:30:00,64.8,58.1,29.44,North,0,0.0,0.0,79,0.00,,,0.00,WUHU21623XXSP,2013-04-30 12:30:00,
2013-04-30 07:35:00,64.9,58.3,29.44,North,0,0.0,0.0,79,0.00,,,0.00,WUHU21623XXSP,2013-04-30 12:35:00,
2013-04-30 07:40:00,64.9,57.9,29.44,North,0,0.0,0.0,78,0.00,,,0.00,WUHU21623XXSP,2013-04-30 12:40:00,
2013-04-30 07:45:00,65.1,58.1,29.44,North,0,0.0,0.0,78,0.00,,,0.00,WUHU21623XXSP,2013-04-30 12:45:00,
2013-04-30 07:50:00,65.3,58.3,29.44,North,0,0.0,0.0,78,0.00,,,0.00,WUHU21623XXSP,2013-04-30 12:50:00,
2013-04-30 07:55:00,65.5,58.1,29.44,North,0,0.0,0.0,77,0.00,,,0.00,WUHU21623XXSP,2013-04-30 12:55:00,
2013-04-30 08:00:00,65.7,58.2,29.44,North,0,0.0,0.0,77,0.00,,,0.00,WUHU21623XXSP,2013-04-30 13:00:00,
2013-04-30 08:05:00,66.0,58.2,29.45,North,0,0.0,0.0,76,0.00,,,0.00,WUHU21623XXSP,2013-04-30 13:05:00,
2013-04-30 08:10:00,66.2,58.0,29.45,North,0,0.0,0.0,75,0.00,,,0.00,WUHU21623XXSP,2013-04-30 13:10:00,
2013-04-30 08:15:00,66.7,58.2,29.45,North,0,0.0,0.0,74,0.00,,,0.00,WUHU21623XXSP,2013-04-30 13:15:00,
2013-04-30 08:20:00,67.1,58.2,29.45,North,0,0.0,0.0,73,0.00,,,0.00,WUHU21623XXSP,2013-04-30 13:20:00,
2013-04-30 08:25:00,67.3,57.2,29.46,North,0,0.0,0.0,70,0.00,,,0.00,WUHU21623XXSP,2013-04-30 13:25:00,
2013-04-30 08:30:00,67.6,55.8,29.46,North,0,0.0,0.0,66,0.00,,,0.00,WUHU21623XXSP,2013-04-30 13:30:00,
2013-04-30 08:35:00,67.6,55.4,29.46,North,0,0.0,0.0,65,0.00,,,0.00,WUHU21623XXSP,2013-04-30 13:35:00,
2013-04-30 08:40:00,67.6,55.0,29.47,North,0,0.0,0.0,64,0.00,,,0.00,WUHU21623XXSP,2013-04-30 13:40:00,
2013-04-30 08:45:00,67.8,54.7,29.48,North,0,0.0,0.0,63,0.00,,,0.00,WUHU21623XXSP,2013-04-30 13:45:00,
2013-04-30 08:50:00,67.6,53.7,29.48,North,0,0.0,0.0,61,0.00,,,0.00,WUHU21623XXSP,2013-04-30 13:50:00,
2013-04-30 08:55:00,67.6,53.3,29.49,North,0,0.0,0.0,60,0.00,,,0.00,WUHU21623XXSP,2013-04-30 13:55:00,
2013-04-30 09:00:00,67.3,52.5,29.49,North,0,0.0,0.0,59,0.00,,,0.00,WUHU21623XXSP,2013-04-30 14:00:00,
2013-04-30 09:05:00,67.1,52.3,29.50,North,0,0.0,0.0,59,0.00,,,0.00,WUHU21623XXSP,2013-04-30 14:05:00,
2013-04-30 09:10:00,67.1,52.3,29.50,North,0,0.0,0.0,59,0.00,,,0.00,WUHU21623XXSP,2013-04-30 14:10:00,
2013-04-30 09:15:00,66.9,51.7,29.50,North,0,0.0,0.0,58,0.00,,,0.00,WUHU21623XXSP,2013-04-30 14:15:00,
2013-04-30 09:20:00,66.9,51.7,29.50,North,0,0.0,0.0,58,0.00,,,0.00,WUHU21623XXSP,2013-04-30 14:20:00,
2013-04-30 09:25:00,66.7,51.5,29.50,North,0,0.0,0.0,58,0.00,,,0.00,WUHU21623XXSP,2013-04-30 14:25:00,
2013-04-30 09:31:00,66.6,51.3,29.52,North,0,0.0,0.0,58,0.00,,,0.00,WUHU21623XXSP,2013-04-30 14:31:00,
2013-04-30 09:36:00,66.2,50.5,29.52,North,0,0.0,0.0,57,0.00,,,0.00,WUHU21623XXSP,2013-04-30 14:36:00,
2013-04-30 09:41:00,65.8,50.2,29.53,North,0,0.0,0.0,57,0.00,,,0.00,WUHU21623XXSP,2013-04-30 14:41:00,
2013-04-30 09:46:00,65.3,49.6,29.53,North,0,0.0,0.0,57,0.00,,,0.00,WUHU21623XXSP,2013-04-30 14:46:00,
2013-04-30 09:51:00,64.9,49.3,29.54,North,0,0.0,0.0,57,0.00,,,0.00,WUHU21623XXSP,2013-04-30 14:51:00,
2013-04-30 09:56:00,64.6,48.9,29.54,North,0,0.0,0.0,57,0.00,,,0.00,WUHU21623XXSP,2013-04-30 14:56:00,
2013-04-30 10:01:00,64.2,48.6,29.55,North,0,0.0,0.0,57,0.00,,,0.00,WUHU21623XXSP,2013-04-30 15:01:00,
2013-04-30 10:06:00,64.2,48.6,29.55,North,0,0.0,0.0,57,0.00,,,0.00,WUHU21623XXSP,2013-04-30 15:06:00,
2013-04-30 10:11:00,64.2,48.6,29.56,North,0,0.0,0.0,57,0.00,,,0.00,WUHU21623XXSP,2013-04-30 15:11:00,
2013-04-30 10:16:00,63.9,48.7,29.56,North,0,0.0,0.0,58,0.00,,,0.00,WUHU21623XXSP,2013-04-30 15:16:00,
2013-04-30 10:21:00,63.7,48.6,29.57,North,0,0.0,0.0,58,0.00,,,0.00,WUHU21623XXSP,2013-04-30 15:21:00,
2013-04-30 10:26:00,63.5,47.9,29.57,North,0,0.0,0.0,57,0.00,,,0.00,WUHU21623XXSP,2013-04-30 15:26:00,
2013-04-30 10:31:00,63.3,48.2,29.58,North,0,0.0,0.0,58,0.00,,,0.00,WUHU21623XXSP,2013-04-30 15:31:00,
2013-04-30 10:36:00,63.0,47.4,29.58,North,0,0.0,0.0,57,0.00,,,0.00,WUHU21623XXSP,2013-04-30 15:36:00,
2013-04-30 10:41:00,62.4,46.9,29.59,North,0,0.0,0.0,57,0.00,,,0.00,WUHU21623XXSP,2013-04-30 15:41:00,
2013-04-30 10:46:00,62.2,47.3,29.60,North,0,0.0,0.0,58,0.00,,,0.00,WUHU21623XXSP,2013-04-30 15:46:00,
2013-04-30 10:51:00,62.4,47.4,29.60,North,0,0.0,0.0,58,0.00,,,0.00,WUHU21623XXSP,2013-04-30 15:51:00,
2013-04-30 10:56:00,62.4,47.4,29.60,North,0,0.0,0.0,58,0.00,,,0.00,WUHU21623XXSP,2013-04-30 15:56:00,
2013-04-30 11:01:00,63.0,47.9,29.60,North,0,0.0,0.0,58,0.00,,,0.00,WUHU21623XXSP,2013-04-30 16:01:00,
2013-04-30 11:06:00,63.1,48.1,29.60,North,0,0.0,0.0,58,0.00,,,0.00,WUHU21623XXSP,2013-04-30 16:06:00,
2013-04-30 11:11:00,63.3,47.8,29.60,North,0,0.0,0.0,57,0.00,,,0.00,WUHU21623XXSP,2013-04-30 16:11:00,
2013-04-30 11:16:00,63.3,47.8,29.62,North,0,0.0,0.0,57,0.00,,,0.00,WUHU21623XXSP,2013-04-30 16:16:00,
2013-04-30 11:21:00,63.5,47.9,29.62,North,0,0.0,0.0,57,0.00,,,0.00,WUHU21623XXSP,2013-04-30 16:21:00,
2013-04-30 11:26:00,63.7,48.1,29.62,North,0,0.0,0.0,57,0.00,,,0.00,WUHU21623XXSP,2013-04-30 16:26:00,
2013-04-30 11:31:00,63.5,47.4,29.62,North,0,0.0,0.0,56,0.00,,,0.00,WUHU21623XXSP,2013-04-30 16:31:00,
2013-04-30 11:36:00,63.3,47.3,29.63,North,0,0.0,0.0,56,0.00,,,0.00,WUHU21623XXSP,2013-04-30 16:36:00,
2013-04-30 11:41:00,63.5,47.4,29.62,North,0,0.0,0.0,56,0.00,,,0.00,WUHU21623XXSP,2013-04-30 16:41:00,
2013-04-30 11:46:00,63.9,47.8,29.62,North,0,0.0,0.0,56,0.00,,,0.00,WUHU21623XXSP,2013-04-30 16:46:00,
2013-04-30 11:51:00,64.0,47.9,29.64,North,0,0.0,0.0,56,0.00,,,0.00,WUHU21623XXSP,2013-04-30 16:51:00,
2013-04-30 11:56:00,64.0,47.9,29.64,North,0,0.0,0.0,56,0.00,,,0.00,WUHU21623XXSP,2013-04-30 16:56:00,
2013-04-30 12:01:00,63.7,47.6,29.64,North,0,0.0,0.0,56,0.00,,,0.00,WUHU21623XXSP,2013-04-30 17:01:00,
2013-04-30 12:06:00,64.0,47.4,29.65,North,0,0.0,0.0,55,0.00,,,0.00,WUHU21623XXSP,2013-04-30 17:06:00,
2013-04-30 12:11:00,64.2,47.6,29.65,North,0,0.0,0.0,55,0.00,,,0.00,WUHU21623XXSP,2013-04-30 17:11:00,
2013-04-30 12:16:00,64.8,47.6,29.65,North,0,0.0,0.0,54,0.00,,,0.00,WUHU21623XXSP,2013-04-30 17:16:00,
2013-04-30 12:21:00,64.9,47.3,29.65,North,0,0.0,0.0,53,0.00,,,0.00,WUHU21623XXSP,2013-04-30 17:21:00,
2013-04-30 12:26:00,65.1,47.5,29.65,North,0,0.0,0.0,53,0.00,,,0.00,WUHU21623XXSP,2013-04-30 17:26:00,
2013-04-30 12:31:00,65.1,47.5,29.67,North,0,0.0,0.0,53,0.00,,,0.00,WUHU21623XXSP,2013-04-30 17:31:00,
2013-04-30 12:36:00,64.9,46.8,29.67,North,0,0.0,0.0,52,0.00,,,0.00,WUHU21623XXSP,2013-04-30 17:36:00,
2013-04-30 12:41:00,64.8,46.7,29.66,North,0,0.0,0.0,52,0.00,,,0.00,WUHU21623XXSP,2013-04-30 17:41:00,
2013-04-30 12:46:00,64.6,47.0,29.66,North,0,0.0,0.0,53,0.00,,,0.00,WUHU21623XXSP,2013-04-30 17:46:00,
2013-04-30 12:51:00,64.4,46.8,29.65,North,0,0.0,0.0,53,0.00,,,0.00,WUHU21623XXSP,2013-04-30 17:51:00,
2013-04-30 12:56:00,64.2,46.1,29.65,North,0,0.0,0.0,52,0.00,,,0.00,WUHU21623XXSP,2013-04-30 17:56:00,
2013-04-30 13:01:00,64.2,46.6,29.63,North,0,0.0,0.0,53,0.00,,,0.00,WUHU21623XXSP,2013-04-30 18:01:00,
2013-04-30 13:06:00,64.6,47.0,29.64,North,0,0.0,0.0,53,0.00,,,0.00,WUHU21623XXSP,2013-04-30 18:06:00,
2013-04-30 13:11:00,64.8,46.7,29.63,North,0,0.0,0.0,52,0.00,,,0.00,WUHU21623XXSP,2013-04-30 18:11:00,
2013-04-30 13:16:00,64.9,46.3,29.67,North,0,0.0,0.0,51,0.00,,,0.00,WUHU21623XXSP,2013-04-30 18:16:00,
2013-04-30 13:21:00,64.8,46.2,29.67,North,0,0.0,0.0,51,0.00,,,0.00,WUHU21623XXSP,2013-04-30 18:21:00,
2013-04-30 13:26:00,64.6,46.0,29.66,North,0,0.0,0.0,51,0.00,,,0.00,WUHU21623XXSP,2013-04-30 18:26:00,
2013-04-30 13:31:00,64.2,45.2,29.67,North,0,0.0,0.0,50,0.00,,,0.00,WUHU21623XXSP,2013-04-30 18:31:00,
2013-04-30 13:36:00,64.4,45.3,29.69,North,0,0.0,0.0,50,0.00,,,0.00,WUHU21623XXSP,2013-04-30 18:36:00,
2013-04-30 13:41:00,64.2,45.6,29.70,North,0,0.0,0.0,51,0.00,,,0.00,WUHU21623XXSP,2013-04-30 18:41:00,
2013-04-30 13:46:00,64.0,45.0,29.70,North,0,0.0,0.0,50,0.00,,,0.00,WUHU21623XXSP,2013-04-30 18:46:00,
2013-04-30 13:51:00,63.7,44.7,29.68,North,0,0.0,0.0,50,0.00,,,0.00,WUHU21623XXSP,2013-04-30 18:51:00,
2013-04-30 13:56:00,64.2,45.6,29.67,North,0,0.0,0.0,51,0.00,,,0.00,WUHU21623XXSP,2013-04-30 18:56:00,
2013-04-30 14:01:00,64.8,45.7,29.69,North,0,0.0,0.0,50,0.00,,,0.00,WUHU21623XXSP,2013-04-30 19:01:00,
2013-04-30 14:06:00,64.9,45.9,29.70,North,0,0.0,0.0,50,0.00,,,0.00,WUHU21623XXSP,2013-04-30 19:06:00,
2013-04-30 14:11:00,64.9,45.3,29.69,North,0,0.0,0.0,49,0.00,,,0.00,WUHU21623XXSP,2013-04-30 19:11:00,
2013-04-30 14:16:00,64.9,44.7,29.69,North,0,0.0,0.0,48,0.00,,,0.00,WUHU21623XXSP,2013-04-30 19:16:00,
2013-04-30 14:21:00,65.1,44.3,29.69,North,0,0.0,0.0,47,0.00,,,0.00,WUHU21623XXSP,2013-04-30 19:21:00,
2013-04-30 14:26:00,65.3,44.5,29.69,North,0,0.0,0.0,47,0.00,,,0.00,WUHU21623XXSP,2013-04-30 19:26:00,
2013-04-30 14:31:00,65.5,44.6,29.69,North,0,0.0,0.0,47,0.00,,,0.00,WUHU21623XXSP,2013-04-30 19:31:00,
2013-04-30 14:36:00,65.5,44.6,29.69,North,0,0.0,0.0,47,0.00,,,0.00,WUHU21623XXSP,2013-04-30 19:36:00,
2013-04-30 14:41:00,65.5,44.0,29.70,North,0,0.0,0.0,46,0.00,,,0.00,WUHU21623XXSP,2013-04-30 19:41:00,
2013-04-30 14:46:00,65.7,43.6,29.72,North,0,0.0,0.0,45,0.00,,,0.00,WUHU21623XXSP,2013-04-30 19:46:00,
2013-04-30 14:51:00,66.0,44.0,29.72,North,0,0.0,0.0,45,0.00,,,0.00,WUHU21623XXSP,2013-04-30 19:51:00,
2013-04-30 14:56:00,66.2,44.1,29.72,North,0,0.0,0.0,45,0.00,,,0.00,WUHU21623XXSP,2013-04-30 19:56:00,
2013-04-30 15:01:00,66.0,43.4,29.73,North,0,0.0,0.0,44,0.00,,,0.00,WUHU21623XXSP,2013-04-30 20:01:00,
2013-04-30 15:06:00,66.0,43.4,29.73,North,0,0.0,0.0,44,0.00,,,0.00,WUHU21623XXSP,2013-04-30 20:06:00,
2013-04-30 15:11:00,66.0,43.4,29.74,North,0,0.0,0.0,44,0.00,,,0.00,WUHU21623XXSP,2013-04-30 20:11:00,
2013-04-30 15:16:00,65.7,42.5,29.71,North,0,0.0,0.0,43,0.00,,,0.00,WUHU21623XXSP,2013-04-30 20:16:00,
2013-04-30 15:21:00,65.5,41.1,29.70,North,0,0.0,0.0,41,0.00,,,0.00,WUHU21623XXSP,2013-04-30 20:21:00,
2013-04-30 15:26:00,65.3,39.6,29.70,North,0,0.0,0.0,39,0.00,,,0.00,WUHU21623XXSP,2013-04-30 20:26:00,
2013-04-30 15:31:00,65.3,40.4,29.72,North,0,0.0,0.0,40,0.00,,,0.00,WUHU21623XXSP,2013-04-30 20:31:00,
2013-04-30 15:36:00,65.5,40.5,29.71,North,0,0.0,0.0,40,0.00,,,0.00,WUHU21623XXSP,2013-04-30 20:36:00,
2013-04-30 15:41:00,65.8,40.1,29.70,North,0,0.0,0.0,39,0.00,,,0.00,WUHU21623XXSP,2013-04-30 20:41:00,
2013-04-30 15:46:00,65.8,39.4,29.72,North,0,0.0,0.0,38,0.00,,,0.00,WUHU21623XXSP,2013-04-30 20:46:00,
2013-04-30 15:51:00,66.0,39.6,29.72,North,0,0.0,0.0,38,0.00,,,0.00,WUHU21623XXSP,2013-04-30 20:51:00,
2013-04-30 15:56:00,66.0,39.6,29.73,North,0,0.0,0.0,38,0.00,,,0.00,WUHU21623XXSP,2013-04-30 20:56:00,
2013-04-30 16:01:00,66.4,39.9,29.74,North,0,0.0,0.0,38,0.00,,,0.00,WUHU21623XXSP,2013-04-30 21:01:00,
2013-04-30 16:06:00,66.7,40.2,29.74,North,0,0.0,0.0,38,0.00,,,0.00,WUHU21623XXSP,2013-04-30 21:06:00,
2013-04-30 16:11:00,66.7,40.2,29.74,North,0,0.0,0.0,38,0.00,,,0.00,WUHU21623XXSP,2013-04-30 21:11:00,
2013-04-30 16:15:00,66.7,40.2,29.74,North,0,0.0,0.0,38,0.00,,,0.00,WUHU21623XXSP,2013-04-30 21:15:00,
2013-04-30 16:20:00,66.4,39.9,29.76,North,0,0.0,0.0,38,0.00,,,0.00,WUHU21623XXSP,2013-04-30 21:20:00,
2013-04-30 16:25:00,66.4,39.9,29.76,North,0,0.0,0.0,38,0.00,,,0.00,WUHU21623XXSP,2013-04-30 21:25:00,
2013-04-30 16:30:00,66.2,39.7,29.76,North,0,0.0,0.0,38,0.00,,,0.00,WUHU21623XXSP,2013-04-30 21:30:00,
2013-04-30 16:35:00,66.4,39.9,29.78,North,0,0.0,0.0,38,0.00,,,0.00,WUHU21623XXSP,2013-04-30 21:35:00,
2013-04-30 16:40:00,66.2,39.0,29.78,North,0,0.0,0.0,37,0.00,,,0.00,WUHU21623XXSP,2013-04-30 21:40:00,
2013-04-30 16:45:00,66.2,39.0,29.79,North,0,0.0,0.0,37,0.00,,,0.00,WUHU21623XXSP,2013-04-30 21:45:00,
2013-04-30 16:50:00,66.2,39.0,29.78,North,0,0.0,0.0,37,0.00,,,0.00,WUHU21623XXSP,2013-04-30 21:50:00,
2013-04-30 16:55:00,66.2,39.0,29.78,North,0,0.0,0.0,37,0.00,,,0.00,WUHU21623XXSP,2013-04-30 21:55:00,
2013-04-30 17:00:00,66.0,38.1,29.79,North,0,0.0,0.0,36,0.00,,,0.00,WUHU21623XXSP,2013-04-30 22:00:00,
2013-04-30 17:05:00,66.0,38.1,29.79,North,0,0.0,0.0,36,0.00,,,0.00,WUHU21623XXSP,2013-04-30 22:05:00,
2013-04-30 17:10:00,66.0,37.4,29.79,North,0,0.0,0.0,35,0.00,,,0.00,WUHU21623XXSP,2013-04-30 22:10:00,
2013-04-30 17:16:00,66.0,36.7,29.80,North,0,0.0,0.0,34,0.00,,,0.00,WUHU21623XXSP,2013-04-30 22:16:00,
2013-04-30 17:21:00,65.7,35.7,29.80,North,0,0.0,0.0,33,0.00,,,0.00,WUHU21623XXSP,2013-04-30 22:21:00,
2013-04-30 17:25:00,65.3,35.3,29.80,North,0,0.0,0.0,33,0.00,,,0.00,WUHU21623XXSP,2013-04-30 22:25:00,
2013-04-30 17:30:00,65.1,35.2,29.80,North,0,0.0,0.0,33,0.00,,,0.00,WUHU21623XXSP,2013-04-30 22:30:00,
2013-04-30 17:36:00,65.1,35.2,29.81,North,0,0.0,0.0,33,0.00,,,0.00,WUHU21623XXSP,2013-04-30 22:36:00,
2013-04-30 17:40:00,66.0,36.0,29.81,North,0,0.0,0.0,33,0.00,,,0.00,WUHU21623XXSP,2013-04-30 22:40:00,
2013-04-30 17:45:00,66.7,35.9,29.82,North,0,0.0,0.0,32,0.00,,,0.00,WUHU21623XXSP,2013-04-30 22:45:00,
2013-04-30 17:50:00,67.3,35.6,29.82,North,0,0.0,0.0,31,0.00,,,0.00,WUHU21623XXSP,2013-04-30 22:50:00,
2013-04-30 17:56:00,68.0,35.4,29.82,North,0,0.0,0.0,30,0.00,,,0.00,WUHU21623XXSP,2013-04-30 22:56:00,
2013-04-30 18:01:00,68.2,35.6,29.82,North,0,0.0,0.0,30,0.00,,,0.00,WUHU21623XXSP,2013-04-30 23:01:00,
2013-04-30 18:06:00,68.2,35.6,29.83,North,0,0.0,0.0,30,0.00,,,0.00,WUHU21623XXSP,2013-04-30 23:06:00,
2013-04-30 18:11:00,68.4,35.7,29.83,North,0,0.0,0.0,30,0.00,,,0.00,WUHU21623XXSP,2013-04-30 23:11:00,
2013-04-30 18:16:00,68.2,35.6,29.83,North,0,0.0,0.0,30,0.00,,,0.00,WUHU21623XXSP,2013-04-30 23:16:00,
2013-04-30 18:21:00,67.6,33.1,29.83,North,0,0.0,0.0,28,0.00,,,0.00,WUHU21623XXSP,2013-04-30 23:21:00,
2013-04-30 18:26:00,66.9,33.5,29.83,North,0,0.0,0.0,29,0.00,,,0.00,WUHU21623XXSP,2013-04-30 23:26:00,
2013-04-30 18:31:00,66.4,34.1,29.83,North,0,0.0,0.0,30,0.00,,,0.00,WUHU21623XXSP,2013-04-30 23:31:00,
2013-04-30 18:36:00,66.0,32.8,29.83,North,0,0.0,0.0,29,0.00,,,0.00,WUHU21623XXSP,2013-04-30 23:36:00,
2013-04-30 18:41:00,65.8,33.7,29.83,North,0,0.0,0.0,30,0.00,,,0.00,WUHU21623XXSP,2013-04-30 23:41:00,
2013-04-30 18:46:00,66.4,34.1,29.83,North,0,0.0,0.0,30,0.00,,,0.00,WUHU21623XXSP,2013-04-30 23:46:00,
2013-04-30 18:51:00,66.0,33.8,29.83,North,0,0.0,0.0,30,0.00,,,0.00,WUHU21623XXSP,2013-04-30 23:51:00,
2013-04-30 18:56:00,66.0,33.8,29.83,North,0,0.0,0.0,30,0.00,,,0.00,WUHU21623XXSP,2013-04-30 23:56:00,
2013-04-30 19:01:00,66.0,33.8,29.83,North,0,0.0,0.0,30,0.00,,,0.00,WUHU21623XXSP,2013-05-01 00:01:00,
2013-04-30 19:06:00,66.0,33.8,29.83,North,0,0.0,0.0,30,0.00,,,0.00,WUHU21623XXSP,2013-05-01 00:06:00,
2013-04-30 19:11:00,65.3,33.2,29.84,North,0,0.0,0.0,30,0.00,,,0.00,WUHU21623XXSP,2013-05-01 00:11:00,
2013-04-30 19:16:00,64.6,33.2,29.83,North,0,0.0,0.0,31,0.00,,,0.00,WUHU21623XXSP,2013-05-01 00:16:00,
2013-04-30 19:21:00,64.0,32.8,29.83,North,0,0.0,0.0,31,0.00,,,0.00,WUHU21623XXSP,2013-05-01 00:21:00,
2013-04-30 19:26:00,63.3,32.8,29.83,North,0,0.0,0.0,32,0.00,,,0.00,WUHU21623XXSP,2013-05-01 00:26:00,
2013-04-30 19:31:00,63.0,32.5,29.82,North,0,0.0,0.0,32,0.00,,,0.00,WUHU21623XXSP,2013-05-01 00:31:00,
2013-04-30 19:36:00,62.8,33.1,29.83,North,0,0.0,0.0,33,0.00,,,0.00,WUHU21623XXSP,2013-05-01 00:36:00,
2013-04-30 19:41:00,62.4,32.7,29.83,North,0,0.0,0.0,33,0.00,,,0.00,WUHU21623XXSP,2013-05-01 00:41:00,
2013-04-30 19:46:00,62.2,33.3,29.84,North,0,0.0,0.0,34,0.00,,,0.00,WUHU21623XXSP,2013-05-01 00:46:00,
2013-04-30 19:51:00,62.2,33.3,29.84,North,0,0.0,0.0,34,0.00,,,0.00,WUHU21623XXSP,2013-05-01 00:51:00,
2013-04-30 19:56:00,62.2,33.3,29.83,North,0,0.0,0.0,34,0.00,,,0.00,WUHU21623XXSP,2013-05-01 00:56:00,
2013-04-30 20:01:00,61.9,33.7,29.83,North,0,0.0,0.0,35,0.00,,,0.00,WUHU21623XXSP,2013-05-01 01:01:00,
2013-04-30 20:06:00,61.5,34.1,29.83,North,0,0.0,0.0,36,0.00,,,0.00,WUHU21623XXSP,2013-05-01 01:06:00,
2013-04-30 20:11:00,61.0,34.3,29.83,North,0,0.0,0.0,37,0.00,,,0.00,WUHU21623XXSP,2013-05-01 01:11:00,
2013-04-30 20:16:00,60.6,34.0,29.83,North,0,0.0,0.0,37,0.00,,,0.00,WUHU21623XXSP,2013-05-01 01:16:00,
2013-04-30 20:21:00,60.1,34.2,29.84,North,0,0.0,0.0,38,0.00,,,0.00,WUHU21623XXSP,2013-05-01 01:21:00,
2013-04-30 20:26:00,59.7,34.6,29.84,North,0,0.0,0.0,39,0.00,,,0.00,WUHU21623XXSP,2013-05-01 01:26:00,
2013-04-30 20:31:00,59.4,35.0,29.83,North,0,0.0,0.0,40,0.00,,,0.00,WUHU21623XXSP,2013-05-01 01:31:00,
2013-04-30 20:36:00,59.2,34.1,29.84,North,0,0.0,0.0,39,0.00,,,0.00,WUHU21623XXSP,2013-05-01 01:36:00,
2013-04-30 20:41:00,58.8,33.8,29.84,North,0,0.0,0.0,39,0.00,,,0.00,WUHU21623XXSP,2013-05-01 01:41:00,
2013-04-30 20:46:00,58.6,33.7,29.84,North,0,0.0,0.0,39,0.00,,,0.00,WUHU21623XXSP,2013-05-01 01:46:00,
2013-04-30 20:51:00,58.3,33.4,29.84,North,0,0.0,0.0,39,0.00,,,0.00,WUHU21623XXSP,2013-05-01 01:51:00,
2013-04-30 20:56:00,58.1,33.9,29.85,North,0,0.0,0.0,40,0.00,,,0.00,WUHU21623XXSP,2013-05-01 01:56:00,
2013-04-30 21:01:00,58.1,33.9,29.85,North,0,0.0,0.0,40,0.00,,,0.00,WUHU21623XXSP,2013-05-01 02:01:00,
2013-04-30 21:06:00,57.9,33.7,29.86,North,0,0.0,0.0,40,0.00,,,0.00,WUHU21623XXSP,2013-05-01 02:06:00,
2013-04-30 21:11:00,57.7,34.1,29.86,North,0,0.0,0.0,41,0.00,,,0.00,WUHU21623XXSP,2013-05-01 02:11:00,
2013-04-30 21:16:00,57.7,34.7,29.86,North,0,0.0,0.0,42,0.00,,,0.00,WUHU21623XXSP,2013-05-01 02:16:00,
2013-04-30 21:21:00,57.2,34.2,29.86,North,0,0.0,0.0,42,0.00,,,0.00,WUHU21623XXSP,2013-05-01 02:21:00,
2013-04-30 21:26:00,57.0,34.1,29.86,North,0,0.0,0.0,42,0.00,,,0.00,WUHU21623XXSP,2013-05-01 02:26:00,
2013-04-30 21:31:00,56.5,34.1,29.87,North,0,0.0,0.0,43,0.00,,,0.00,WUHU21623XXSP,2013-05-01 02:31:00,
2013-04-30 21:36:00,56.1,33.8,29.87,North,0,0.0,0.0,43,0.00,,,0.00,WUHU21623XXSP,2013-05-01 02:36:00,
2013-04-30 21:41:00,55.9,34.2,29.87,North,0,0.0,0.0,44,0.00,,,0.00,WUHU21623XXSP,2013-05-01 02:41:00,
2013-04-30 21:46:00,55.9,34.2,29.87,North,0,0.0,0.0,44,0.00,,,0.00,WUHU21623XXSP,2013-05-01 02:46:00,
2013-04-30 21:51:00,56.1,34.9,29.87,North,0,0.0,0.0,45,0.00,,,0.00,WUHU21623XXSP,2013-05-01 02:51:00,
2013-04-30 21:56:00,56.3,35.1,29.89,North,0,0.0,0.0,45,0.00,,,0.00,WUHU21623XXSP,2013-05-01 02:56:00,
2013-04-30 22:01:00,56.5,35.3,29.89,North,0,0.0,0.0,45,0.00,,,0.00,WUHU21623XXSP,2013-05-01 03:01:00,
2013-04-30 22:06:00,56.5,35.3,29.89,North,0,0.0,0.0,45,0.00,,,0.00,WUHU21623XXSP,2013-05-01 03:06:00,
2013-04-30 22:11:00,56.7,35.4,29.89,North,0,0.0,0.0,45,0.00,,,0.00,WUHU21623XXSP,2013-05-01 03:11:00,
2013-04-30 22:16:00,56.7,36.0,29.91,North,0,0.0,0.0,46,0.00,,,0.00,WUHU21623XXSP,2013-05-01 03:16:00,
2013-04-30 22:21:00,56.5,35.8,29.91,North,0,0.0,0.0,46,0.00,,,0.00,WUHU21623XXSP,2013-05-01 03:21:00,
2013-04-30 22:26:00,56.5,35.8,29.91,North,0,0.0,0.0,46,0.00,,,0.00,WUHU21623XXSP,2013-05-01 03:26:00,
2013-04-30 22:31:00,56.5,35.8,29.91,North,0,0.0,0.0,46,0.00,,,0.00,WUHU21623XXSP,2013-05-01 03:31:00,
2013-04-30 22:36:00,56.5,35.8,29.91,North,0,0.0,0.0,46,0.00,,,0.00,WUHU21623XXSP,2013-05-01 03:36:00,
2013-04-30 22:41:00,56.3,35.7,29.91,North,0,0.0,0.0,46,0.00,,,0.00,WUHU21623XXSP,2013-05-01 03:41:00,
2013-04-30 22:46:00,56.1,35.5,29.92,North,0,0.0,0.0,46,0.00,,,0.00,WUHU21623XXSP,2013-05-01 03:46:00,
2013-04-30 22:51:00,56.1,36.0,29.92,North,0,0.0,0.0,47,0.00,,,0.00,WUHU21623XXSP,2013-05-01 03:51:00,
2013-04-30 22:56:00,55.9,35.9,29.92,North,0,0.0,0.0,47,0.00,,,0.00,WUHU21623XXSP,2013-05-01 03:56:00,
2013-04-30 23:01:00,55.9,36.4,29.93,North,0,0.0,0.0,48,0.00,,,0.00,WUHU21623XXSP,2013-05-01 04:01:00,
2013-04-30 23:02:00,55.9,36.4,29.93,North,0,0.0,0.0,48,0.00,,,0.00,WUHU21623XXSP,2013-05-01 04:02:00,
2013-04-30 23:07:00,55.9,36.4,29.93,North,0,0.0,0.0,48,0.00,,,0.00,WUHU21623XXSP,2013-05-01 04:07:00,
2013-04-30 23:12:00,55.8,36.8,29.93,North,0,0.0,0.0,49,0.00,,,0.00,WUHU21623XXSP,2013-05-01 04:12:00,
2013-04-30 23:17:00,55.6,36.6,29.93,North,0,0.0,0.0,49,0.00,,,0.00,WUHU21623XXSP,2013-05-01 04:17:00,
2013-04-30 23:22:00,55.2,36.3,29.93,North,0,0.0,0.0,49,0.00,,,0.00,WUHU21623XXSP,2013-05-01 04:22:00,
2013-04-30 23:27:00,55.2,36.3,29.94,North,0,0.0,0.0,49,0.00,,,0.00,WUHU21623XXSP,2013-05-01 04:27:00,
2013-04-30 23:32:00,55.0,36.7,29.95,North,0,0.0,0.0,50,0.00,,,0.00,WUHU21623XXSP,2013-05-01 04:32:00,
2013-04-30 23:37:00,54.7,36.4,29.95,North,0,0.0,0.0,50,0.00,,,0.00,WUHU21623XXSP,2013-05-01 04:37:00,
2013-04-30 23:42:00,54.7,36.4,29.96,North,0,0.0,0.0,50,0.00,,,0.00,WUHU21623XXSP,2013-05-01 04:42:00,
2013-04-30 23:47:00,54.3,36.1,29.96,North,0,0.0,0.0,50,0.00,,,0.00,WUHU21623XXSP,2013-05-01 04:47:00,
2013-04-30 23:52:00,54.3,35.5,29.97,North,0,0.0,0.0,49,0.00,,,0.00,WUHU21623XXSP,2013-05-01 04:52:00,
2013-04-30 23:57:00,54.3,35.5,29.97,North,0,0.0,0.0,49,0.00,,,0.00,WUHU21623XXSP,2013-05-01 04:57:00,